Tracking 17844 objects as of 23-August-2016
HD Live streaming from Space Station
objects crossing your sky now

ATLAS 55E R/B

Track ATLAS 55E R/B now!
10-day predictions


NORAD ID: 16137
Int'l Code: 1985-093B
Perigee: 938.3 km
Apogee: 20,357.3 km
Inclination: 63.7 °
Period: 368.3 minutes
Semi major axis: 17018 km
RCS: 2.2883 m2 (large)
Launch date: October 9, 1985
Source: United States (US)
Launch site: AIR FORCE WESTERN TEST RANGE (AFWTR)

Note: This is a ROCKET BODY
Your satellite tracking list
Your tracking list is empty





NASA's NSSDC Master Catalog

Two Line Element Set (TLE):
1 16137U 85093B   16235.49402963 -.00000015 +00000-0 +00000-0 0  9994
2 16137 063.6859 082.5364 5705146 000.1192 015.5814 03.91027997440869
Source of the keplerian elements: AFSPC

N2YO: 724